Flag for Belgium Weather past 2 weeks in Charleroi, Belgium

Now
68 °F

Passing clouds.


Feels Like: 68 °F
Forecast: 54 / 65 °F
Wind: 9 mph from Southwest

Location: Charleroi / Gosselies

Current Time: Aug 31, 2015 at 8:13:21 PM

Latest Report: Aug 31, 2015 at 7:50 PM


Visibility: N/A

Pressure: 29.86 "Hg

Humidity: 88%

Dew point: 64 °F

Location of CharleroiLocation

Historic Weather in Charleroi — Graph

°F

Charleroi temperature yesterday

Maximum temperature yesterday: 86 °F (at 3:20 PM)
Minimum temperature yesterday: 61 °F (at 7:20 AM)
Average temperature yesterday: 74 °F

Past Weeks' High & Low Weather Summary

 TemperatureHumidityPressure
High86 °F (Aug 30, 3:20 PM)100% (Aug 24, 3:20 AM)30.24 "Hg (Aug 24, 3:20 AM)
Low52 °F (Aug 17, 4:50 AM)34% (Aug 22, 5:50 PM)29.50 "Hg (Aug 24, 1:50 PM)
Average64 °F74%29.98 "Hg
* Reported Aug 16 6:20 PM — Aug 31 6:50 PM, Charleroi, Weather by CustomWeather, © 2015

Note: Actual official high and low records may vary slightly from our data, if they occured in-between our weather recording intervals... More about our weather records

Advertising

Charleroi weather history for previous 24 hours

 ConditionsComfort  
Time TempWeatherWind HumidityBarometerVisibility
6:50 PM
Mon, Aug 31
68 °FPassing clouds.8 mph88%29.86 "HgN/A
6:20 PM68 °FSprinkles. Partly sunny.9 mph88%29.86 "Hg2 mi
5:50 PM70 °FPassing clouds.6 mph83%29.86 "HgN/A
5:20 PM70 °FPassing clouds.6 mph83%29.86 "HgN/A
4:50 PM68 °FThunderstorms. Scattered clouds.7 mph88%29.86 "HgN/A
4:20 PM70 °FPassing clouds.13 mph73%29.83 "HgN/A
3:50 PM82 °FPassing clouds.12 mph51%29.83 "HgN/A
3:20 PM82 °FPassing clouds.13 mph51%29.83 "HgN/A
2:50 PM84 °FSunny.15 mph48%29.83 "Hg10 mi
2:20 PM82 °FPassing clouds.14 mph51%29.83 "HgN/A
1:50 PM81 °FPassing clouds.13 mph54%29.83 "HgN/A
1:20 PM81 °FPassing clouds.13 mph51%29.83 "HgN/A
12:50 PM81 °FSunny.13 mph51%29.83 "Hg10 mi
12:20 PM79 °FPassing clouds.10 mph51%29.83 "HgN/A
11:50 AM79 °FPassing clouds.9 mph51%29.83 "HgN/A
11:20 AM77 °FSunny.9 mph54%29.86 "Hg10 mi
10:50 AM75 °FPassing clouds.9 mph54%29.86 "HgN/A
10:20 AM73 °FPassing clouds.10 mph61%29.86 "HgN/A
9:50 AM72 °FPassing clouds.9 mph61%29.86 "HgN/A
9:20 AM72 °FPassing clouds.7 mph65%29.86 "HgN/A
8:50 AM70 °FSunny.7 mph69%29.86 "Hg10 mi
8:20 AM68 °FSunny.5 mph83%29.86 "Hg10 mi
7:50 AM66 °FPassing clouds.6 mph94%29.86 "HgN/A
7:20 AM66 °FFog.2 mph94%29.89 "Hg3 mi
6:50 AM66 °FFog.3 mph94%29.86 "Hg3 mi
6:20 AM68 °FClear.1 mph94%29.89 "Hg4 mi
5:50 AM68 °FClear.3 mph94%29.89 "Hg4 mi
5:20 AM68 °FClear.7 mph94%29.92 "Hg10 mi
4:50 AM68 °FPassing clouds.6 mph94%29.92 "HgN/A
4:20 AM68 °FClear.5 mph94%29.92 "Hg10 mi
3:50 AM68 °FPassing clouds.5 mph94%29.92 "HgN/A
3:20 AM68 °FPassing clouds.5 mph94%29.92 "HgN/A
2:50 AM70 °FClear.3 mph88%29.92 "Hg10 mi
2:20 AM70 °FPassing clouds.3 mph88%29.95 "HgN/A
1:50 AM72 °FClear.1 mph78%29.95 "Hg10 mi
1:20 AM72 °FClear.1 mph83%29.95 "Hg10 mi
12:50 AM75 °FClear.5 mph74%29.95 "Hg10 mi
12:20 AM75 °FClear.5 mph74%29.95 "Hg10 mi
11:50 PM
Sun, Aug 30
75 °FClear.5 mph74%29.95 "Hg10 mi
11:20 PM77 °FPassing clouds.5 mph69%29.95 "HgN/A
10:50 PM77 °FPassing clouds.6 mph69%29.95 "HgN/A
10:20 PM77 °FPassing clouds.8 mph74%29.95 "HgN/A
9:50 PM79 °FPassing clouds.7 mph70%29.98 "HgN/A
9:20 PM79 °FPassing clouds.6 mph74%29.98 "HgN/A
8:50 PM81 °FPassing clouds.6 mph70%29.98 "HgN/A
8:20 PM81 °FPassing clouds.3 mph70%29.98 "HgN/A
Weather by CustomWeather, © 2015

See weather overviewHow to use our weather pages